Weather Service Report


970 
ASUS41 KAKQ 280615
RWRAKQ

REGIONAL WEATHER ROUNDUP
NATIONAL WEATHER SERVICE WAKEFIELD VA
200 AM EDT THU MAY 28 2015

Note: "fair" indicates few or no clouds below 12,000 feet with no
significant weather and/or obstructions to visibility. * = Denotes
station may not report precipitation (e.g., rain,snow,etc.),
thunder or fog.

VAZ042-051-052>054-056-280700-
NORTHERN VIRGINIA
  
CITY           SKY/WX    TMP DP  RH WIND       PRES   REMARKS
WASH NATIONAL  PTCLDY    76  70  82 S9        30.14S                  
DULLES         PTCLDY    67  66  94 CALM      30.14S                  
FORT BELVOIR   CLEAR     67  66  95 NW1       30.13F                  
QUANTICO       CLEAR     76  67  73 SW6       30.15R                  
FREDERICKSBRG* PTCLDY    75  68  77 S6        30.14S                  
STAFFORD*      CLEAR     71  65  81 CALM      30.18S                  
WARRENTON      CLEAR     73  68  84 S5        30.14F                  
CULPEPER*      CLEAR     69  65  86 SW3       30.15F                  
MANASSAS*      CLEAR     70  68  94 CALM      30.14S                  
LEESBURG*      PTCLDY    68  68 100 S5        30.14F                  
WINCHESTER     PTCLDY    68  63  83 CALM      30.14F HAZE             
FRONT ROYAL*   FAIR      68  64  88 S5        30.13F                  
LURAY*         FAIR      66  66 100 CALM      30.16F                  
$$

VAZ048-049-060>072-079>083-280700-
CENTRAL AND SOUTH CENTRAL VIRGINIA
  
CITY           SKY/WX    TMP DP  RH WIND       PRES   REMARKS
RICHMOND       MOCLDY    73  66  78 SW7       30.17S                  
CHESTERFIELD*  NOT AVBL                                               
PETERSBURG*    MOCLDY    72  72 100 SW6       30.19S                  
HANOVER        MOCLDY    73  66  78 SW8       30.18S                  
TAPPAHANNOCK*  MOCLDY    73  64  75 S5        30.18R                  
QUINTON*       FAIR      71  67  85 S6        30.17S                  
CHARLOTTSVILLE CLEAR     70  63  78 SE3       30.16S                  
GORDONSVILLE*  FAIR      65  64  94 CALM      30.15F                  
ORANGE*        CLEAR     70  64  83 CALM      30.17F                  
LOUISA*        PTCLDY    73  66  78 SW3       30.16S                  
BUMPASS*       FAIR      71  66  83 MISG      30.16S                  
FARMVILLE*     PTCLDY    70  66  88 S3        30.17S                  
CREWE*         FAIR      71  67  87 SW5       30.19S                  
FORT PICKETT*  MOCLDY    70  68  93 SW8       30.18F                  
CHASE CITY*    FAIR      72  72 100 CALM      30.20S                  
CLARKSVILLE*   FAIR      70  68  94 SW8       30.19F                  
SOUTH HILL*    MOCLDY    69  68  96 S6        30.25F                  
LAWRENCEVILLE* FAIR      70  70 100 S3        30.19F                  
EMPORIA*       MOCLDY    70  68  94 CALM      30.21F                  
$$

VAZ088>098-280700-
SOUTHEAST VIRGINIA
  
CITY           SKY/WX    TMP DP  RH WIND       PRES   REMARKS
NORFOLK        PTCLDY    72  65  78 S12       30.19S                  
VIRGINIA BEACH PTCLDY    72  65  78 S13       30.19S                  
NORFOLK NAVAL  PTCLDY    76  66  71 S9        30.21S                  
WEST POINT*    CLOUDY    74  68  83 S5        30.20R                  
SALUDA*        FAIR      71  68  90 SW9G20    30.18R                  
NEWPORT NEWS   CLOUDY    77  67  71 SW13      30.19S                  
LANGLEY AFB    MOCLDY    73  67  83 S13       30.18S                  
FORT EUSTIS    CLOUDY    73  73 100 VRB6      30.18R                  
WILLIAMSBURG*  CLOUDY    73  72  94 CALM      30.20S                  
HR EXEC AP*    FAIR      72  64  78 S8        30.22S                  
FRANKLIN*      CLOUDY    72  67  84 S8        30.20S                  
WAKEFIELD      CLOUDY    71  69  93 CALM      30.19S                  
$$

VAZ020-022-025-037-045-280700-
WEST CENTRAL AND SOUTHWEST VIRGINIA
  
CITY           SKY/WX    TMP DP  RH WIND       PRES   REMARKS
STAUNTON*      PTCLDY    66  62  87 CALM      30.20S                  
WAYNESBORO*    FAIR      64  61  90 CALM      30.20S                  
HOT SPRINGS VA CLEAR     63  57  82 W12       30.29S                  
LYNCHBURG      CLEAR     65  64  97 S3        30.21S                  
DANVILLE       CLEAR     68  65  90 SW3       30.19F                  
SOUTH BOSTON*  FAIR      68  66  93 CALM      30.20S                  
MARTINSVILLE   PTCLDY    61  61 100 CALM      30.23S                  
ROANOKE        PTCLDY    70  63  78 SW6       30.21F                  
BLACKSBURG     CLEAR     62  61  96 CALM      30.28S                  
DUBLIN*        CLEAR     62  62 100 CALM      30.26S                  
MARION*        PTCLDY    59  58  94 CALM      30.29F FOG              
HILLSVILLE*    PTCLDY    64  62  96 S3        30.28S                  
RICHLANDS*     CLOUDY    66  58  75 S3        30.25F                  
WISE*          CLOUDY    68  55  64 SW5       30.26F                  
ABINGDON*      MOCLDY    65  61  85 CALM      30.24S                  
$$

MDZ021>025-VAZ099-100-280700-
SOUTHERN MARYLAND AND THE DELMARVA PENINSULA
  
CITY           SKY/WX    TMP DP  RH WIND       PRES   REMARKS
PATUXENT RIVER PTCLDY    73  67  81 S9        30.15S                  
BAY BRIDGE APT   N/A    N/A N/A N/A S8        30.13F                  
LEONARDTOWN    PTCLDY    72  66  83 SW3       30.17S                  
DOVER          MOCLDY    72  70  96 S8        30.11F                  
GEORGETOWN     MOCLDY    70  66  87 S9        30.17S                  
EASTON         NOT AVBL                                               
CAMBRIDGE      PTCLDY    77  68  73 S5        30.15S                  
SALISBURY      MOCLDY    69  66  90 S5        30.17S                  
OCEAN CITY     PTCLDY    67  64  90 S7        30.18F                  
WALLOPS ISLAND PTCLDY    66  65  96 S16G22    30.19F                  
ACCOMACK*      PTCLDY    70  68  94 S7        30.18F                  
$$

NCZ012>017-030>032-280700-
NORTH CENTRAL AND EASTERN NORTH CAROLINA
  
CITY           SKY/WX    TMP DP  RH WIND       PRES   REMARKS
ROANOKE RAPIDS FAIR      70  68  94 S6        30.21S                  
RALEIGH        PTCLDY    70  67  90 SW7       30.22F                  
ELIZABETH CITY CLEAR     70  65  84 S8        30.21F                  
AHOSKIE*       MOCLDY    70  66  85 S5        30.21F                  
EDENTON*       CLEAR     70  65  84 S7        30.22F                  
CURRITUCK*     CLEAR     71  63  76 SW3       30.22F                  
KILL DEVIL HLS CLEAR     71  64  78 S3        30.22F                  
MANTEO         CLEAR     72  64  77 SW10      30.23F                  
CAPE HATTERAS  CLEAR     71  60  68 S8        30.24F                  
TARBORO*       FAIR      72  67  85 S3        30.22F                  
GOLDSBORO      CLOUDY    71  67  88 S1        30.20F                  
WASHINGTON     PTCLDY    70  65  84 S5        30.23S                  
GREENVILLE     PTCLDY    70  68  94 SW8       30.23S                  
NEW BERN       PTCLDY    66  63  90 CALM      30.24F                  
WILMINGTON     PTCLDY    69  64  84 CALM      30.23S                  
$$

VAZ048-280700-
ELSEWHERE
  
CITY           SKY/WX    TMP DP  RH WIND       PRES   REMARKS
HARRISBURG PA  PTCLDY    68  65  90 CALM      30.11F                  
BALTIMORE      PTCLDY    69  67  93 CALM      30.12F                  
ANNAPOLIS      CLEAR     71  68  90 CALM      30.12F                  
ANDREWS AFB    CLEAR     73  69  85 SW8       30.13F                  
PHILADELPHIA   PTCLDY    72  68  87 S7        30.14F                  
HENDERSON NC   MOCLDY    69  67  92 SW8       30.21F                  
GREENSBORO     PTCLDY    70  67  90 SW6       30.20F                  
ROCKY MOUNT    PTCLDY    70  68  93 S5        30.22F                  
$$

VAZ100-280700-
MARINE
  
STATION/POSITION TIME  TEMP    WIND        PRES    WAVE   SWELL
                       AIR SEA DIR/SP/G            HT/PER HT/PER
                 (UTC) (F)     (DEG/KT/KT) (MB)    (FT/S) (FT/S)
BRANDYWINE LGT   0500   69 67  200/ 12/ 14 1021.2F
CAPE MAY NJ      0500   66 70  160/  8/ 12 1021.0F
LEWES DE         0500   72 61  200/  6/ 10 1021.3F
15NM E FENWICK I 0550   65 62              1021.4F   4/ 6
OCEAN-CITY-INLET 0500   63 67  210/ 13/ 15 1021.9F
WACHAPREAGUE VA  0500   71 76  220/  6/ 11 1022.3F
THOMAS POINT MD  0600   71 69  180/ 14/ 15 1020.8F
GOOSES REEF MD   0600   71 69  200/  8/ 10 1021.5F   1/ 2
COVE POINT MD    0500   73     190/ 11/ 13 1021.7F
SOLOMONS ISLAND  0500      72                N/A
BISHOPS HEAD MD  0500   74 73  200/ 12/ 15 1021.2F
PINEY POINT MD   0500          210/  7/  8   N/A
CAMBRIDGE MD     0500   75 72  180/  5/ 10 1020.9F
LEWISETTA VA     0500   73 73              1021.1F
RAPPAHANNOCK LGT 0500          180/ 17/ 18 1022.3F
STINGRAY PT      0600   74 72  230/ 12/ 14 1021.7R   1/ 3
YORK RVR RNG VA  0500   74     220/ 13/ 15 1021.4F
YORKTOWN VA      0500   74 72  220/  5/  7 1021.8F
JAMESTOWN VA     0600   71 76  210/  6/  6 1021.4R
DOMINION TERM VA 0500   73     200/ 12/ 13 1022.5F
KIPTOPEKE VA     0500      77  190/ 10/ 13   N/A
CHES BAY BRIDGE  0500   73 72  170/ 12/ 15 1021.9F
CAPE HENRY VA    0500   72     180/ 11/ 15 1021.2F
CHESAPEAKE LGHT  0500   66     180/ 20/ 21 1023.1F
WILLOUBY STN VA  0500   73     200/ 14/ 18 1023.0F
CAPE HENRY BUOY  0528      62                N/A     3/ 6
1ST LANDING BUOY 0600      71              1022.1R
CAPE CHARLES BUO 0526      68                N/A     2/ 4   2/ 7
OFFSHORE WE BUOY 0511      65                N/A     3/ 7   2/ 7
64NM E OF VA BCH 0550   66 64  170/  8/  8 1023.3F   3/ 7   3/ 7
DUCK PIER NC     0500   72 55  200/ 13/ 15 1022.4F
44100 DUCK FRF   0524      64                N/A     2/ 7
44056 DUCK FRF   0511      58                N/A     2/ 7
OREGON INLET NC  0500   73 77  190/ 12/ 14 1023.9F
HATTERAS NC      0500   73 75  200/  4/  8 1023.8F
DIAMOND SHLS NC  0550   74 77  180/ 10/ 12 1024.1F   3/ 7   3/ 7
CAPE LOOKOUT NC  0600   72     190/  5/  6 1023.6F
$$

Return to Home page


Western Regional Climate Center, wrcc@dri.edu